OPS 4682 DEB, 38420

Orbit data source: Space-Track

OPS 4682 DEB, 38420 is space debris in LEO originally from a launch on Sat, 03 Apr 1965 UTC launched from the Air Force Western Test Range (AFWTR). Debris objects in space refer to the collection of defunct objects orbiting the Earth. Examples of debris include non-operational satellites, rocket bodies, and fragments generated from explosions, collisions, or faulty payload assembly.

Loading next visibility...
Identifier
38420, 1965-027DZ
Orbit
LEO
Country
Flag of USUS
Related business
Manufacturer
Unknown
Mission
Spacecraft
Bus & Motor
Unknown
Mass
Unknown
Launch date (UTC)
1965-04-03 (61 years ago)
Launch vehicle
Unknown
Launch site
Air Force Western Test Range (AFWTR)
Object type
Payload
Rocket body
Debris
Shape & HBR
Unknown shape, 0.1 m
Radar Cross Section
Small (<0.1 m²)

Expand to show TLE details & history
Last TLE update: 13 hours ago

TLE from 13 hours ago
0 OPS 4682 DEB
1 38420U 65027DZ  26119.38856224  .00000561  00000-0  18349-2 0  9993
2 38420  90.2516   9.8456 0031446  40.1437 320.2000 12.99977355548046
Epoch: 2026-04-29T09:19Z
TLE epoch observation values (Epoch: 2026-04-29T09:19:31.777Z)
Latitude
-0.00003°
Longitude
12.61296°
Altitude
1,246.628 km
Speed
7.24 km/s
True Right ascension
00h 39m 22s
True Declination
0° 00' 00"
Sunlit
Object was in daylight at epoch
Visualization orbit readout
Latitude
Unknown
Longitude
Unknown
Altitude
Unknown
Speed
Unknown
Apparent Right ascension
Unknown
Apparent Declination
Unknown
Sunlit
N/A
Visualization observer readout
Local Sidereal Time
05:44:03
Azimuth
Unknown
Elevation
Unknown
Doppler factor
Unknown
Orbital elements
Apogee altitude
1,283.319 km
Perigee altitude
1,235.286 km
Semi-major axis
7,637.439 km
Eccentricity
0.00314
Inclination
90.2516°
RAAN
9.8456°
Arg. of periapsis
40.1437°
True anomaly
319.96864°
Mean anomaly
320.2°
Eccentric anomaly
320.08439°
Mean motion
3.25178 °/min
Orbital period
110.71 mins
BSTAR
0.0018349
Loading maneuver chart data...
Computing Atmospheric mass density...
Loading historical data...
Loading historical data...
Loading historical data...
Loading historical data...
Loading historical data...
Loading historical data...
Loading historical data...

Documentation

Showing up to 5 results
|